TimeCST,TemperatureF,Dew PointF,Humidity,Sea Level PressureIn,VisibilityMPH,Wind Direction,Wind SpeedMPH,Gust SpeedMPH,PrecipitationIn,Events,Conditions,WindDirDegrees,DateUTC
12:53 AM,39.0,33.1,79,30.25,10.0,North,3.5,-,N/A,,Clear,350,2013-02-20 06:53:00
1:53 AM,39.9,28.9,65,30.25,10.0,North,6.9,-,N/A,,Clear,10,2013-02-20 07:53:00
2:53 AM,39.9,28.0,63,30.23,10.0,North,8.1,-,N/A,,Clear,360,2013-02-20 08:53:00
3:53 AM,39.0,27.0,62,30.22,10.0,North,6.9,-,N/A,,Clear,10,2013-02-20 09:53:00
4:53 AM,39.9,26.1,58,30.20,10.0,NE,6.9,-,N/A,,Clear,40,2013-02-20 10:53:00
5:53 AM,42.1,26.1,53,30.18,10.0,NE,6.9,-,N/A,,Clear,40,2013-02-20 11:53:00
6:53 AM,41.0,27.0,57,30.23,10.0,NE,4.6,-,N/A,,Clear,40,2013-02-20 12:53:00
7:53 AM,44.1,27.0,51,30.26,10.0,NNE,4.6,-,N/A,,Clear,30,2013-02-20 13:53:00
8:53 AM,46.0,25.0,44,30.28,10.0,ENE,6.9,-,N/A,,Clear,60,2013-02-20 14:53:00
10:53 AM,51.1,21.0,31,30.25,10.0,NE,4.6,-,N/A,,Clear,50,2013-02-20 16:53:00
11:53 AM,54.0,19.0,25,30.23,10.0,Variable,5.8,-,N/A,,Clear,0,2013-02-20 17:53:00
12:53 PM,57.0,19.0,23,30.19,10.0,East,6.9,-,N/A,,Clear,80,2013-02-20 18:53:00
1:53 PM,57.9,21.0,24,30.15,10.0,NE,6.9,-,N/A,,Clear,50,2013-02-20 19:53:00
2:53 PM,57.9,21.9,25,30.13,10.0,East,6.9,-,N/A,,Clear,90,2013-02-20 20:53:00
3:53 PM,60.1,23.0,24,30.12,10.0,Variable,5.8,-,N/A,,Clear,0,2013-02-20 21:53:00
4:53 PM,57.9,23.0,26,30.14,10.0,East,4.6,-,N/A,,Clear,100,2013-02-20 22:53:00
5:53 PM,50.0,30.9,48,30.14,10.0,Calm,Calm,-,N/A,,Clear,0,2013-02-20 23:53:00
6:53 PM,45.0,36.0,71,30.15,10.0,Calm,Calm,-,N/A,,Clear,0,2013-02-21 00:53:00
7:53 PM,44.1,37.9,79,30.14,10.0,Calm,Calm,-,N/A,,Clear,0,2013-02-21 01:53:00
9:53 PM,39.9,36.0,86,30.14,10.0,Calm,Calm,-,N/A,,Clear,0,2013-02-21 03:53:00
10:53 PM,39.0,36.0,89,30.12,10.0,Calm,Calm,-,N/A,,Clear,0,2013-02-21 04:53:00
11:53 PM,39.0,37.0,93,30.09,10.0,Calm,Calm,-,N/A,,Clear,0,2013-02-21 05:53:00